Showing default

GOSAT 2, 43672

Orbit data source: Space-Track

GOSAT 2, 43672 is a payload satellite owned by JAXA (JP) in SSO that was launched on Mon, 29 Oct 2018 UTC via an H-IIA 202 launch vehicle from the Tanegashima Space Center (TNSTA). Payload-class satellites include a variety of spacecraft equipped with specific instruments for various scientific and technological missions. These include communications satellites like Starlink; space stations such as the ISS; scientific satellites like the Hubble; Earth observation satellites from companies like Planet Labs, Umbra, and HawkEye 360; GPS; miniature CubeSats for education and research; and military/defense satellites.

Loading next visibility...
Identifier
43672, 2018-084B
Orbit
SSO
Country
Flag of JPJP / JPN
Related business
Manufacturer
MELCO
Mission
Operational Civil Science
Bus & Motor
GOSAT, AOCS
Mass
1,750 kg wet, ~1,700 kg dry
Launch date (UTC)
2018-10-29 (7 years ago)
Launch vehicle
H-IIA 202
Launch site
Tanegashima Space Center (TNSTA)
Object type
Payload
Rocket body
Debris
Shape & HBR
Box + 2 Pan, 8.3 m
Radar Cross Section
20.392 m², Large (>1 m²)

Expand to show TLE details & history
Last TLE update: 23 hours ago

TLE from 23 hours ago
0 GOSAT 2
1 43672U 18084B   25258.03506773  .00001704  00000-0  20979-3 0  9998
2 43672  97.8623   8.2225 0001440  91.8925 268.2455 14.84248615372749
Epoch: 2025-09-15T00:50Z
TLE epoch observation values (Epoch: 2025-09-15T00:50:29.851Z)
Latitude
0.00002°
Longitude
1.35261°
Altitude
619.005 km
Speed
7.549 km/s
True Right ascension
00h 32m 53s
True Declination
0° 00' 00"
Sunlit
Object was in full shadow at epoch
Visualization orbit readout
Latitude
Unknown
Longitude
Unknown
Altitude
Unknown
Speed
Unknown
Apparent Right ascension
Unknown
Apparent Declination
Unknown
Sunlit
N/A
Visualization observer readout
Local Sidereal Time
16:26:21
Azimuth
Unknown
Elevation
Unknown
Doppler factor
Unknown
Orbital elements
Apogee altitude
613.986 km
Perigee altitude
611.972 km
Semi-major axis
6,991.116 km
Eccentricity
0.00014
Inclination
97.8623°
RAAN
8.2225°
Arg. of periapsis
91.8925°
True anomaly
268.22901°
Mean anomaly
268.2455°
Eccentric anomaly
268.23725°
Mean motion
3.71299 °/min
Orbital period
96.96 mins
BSTAR
0.00020979
Loading maneuver chart data...
Computing Atmospheric mass density...

Documentation

Showing up to 5 results
|